Погода в Толедо

Филиппины     10°23′30″N   123°39′00″E
темп.,
°C
ветер,
м/с
пор.,
м/с
влажн.,
%
обл.,
%
осадки,
мм/ч
давл.,
гПа
погр.,
м
23 апреля, пт
пт2323:00+25юз4787100 0.0 1009306
02:00+24ююз4789100 0.0 1007269
05:00+24ю368998 0.0 1008222
08:00+27ююз4674100 0.0 1009574
11:00+30юз666314 0.0 10081047
14:00+30юз686296 0.8 10061157
17:00+28юз697354 1.3 1006432
20:00+26юз358251 1.6 1009167
24 апреля, сб
сб2423:00+25ююз358488 0.0 1009183
02:00+24ююз3587100 0.0 1008195
05:00+24ююз3587100 0.0 1009168
08:00+27ююз4474100 0.0 1011532
11:00+30зюз4463100 0.0 1010931
14:00+30зюз356199 1.3 10081016
17:00+29ссз2267100 0.9 1008192
20:00+25всв1283100 1.5 101059
25 апреля, вс
вс2523:00+25ююз128265 0.0 101175
02:00+24ююз238653 0.0 1009140
05:00+24ю2288100 0.0 1010120
08:00+27юз217332 0.0 1012561
11:00+29з436398 0.0 10111068
14:00+29сз336113 0.6 1009852
17:00+28с326860 0.1 1009561
20:00+25ссв228359 0.8 101195
26 апреля, пн
пн2623:00+25всв11819 0.6 101147
02:00+24св2381100 0.9 1010102
05:00+24с248712 0.2 1010152
08:00+27с33726 0.6 1012705
11:00+29ссз446352 0.2 10111182
14:00+28ссз547147 0.8 1009820
17:00+26с447721 0.5 1009533
20:00+24ссв238446 0.6 1012139
27 апреля, вт
вт2723:00+23св238623 0.0 1012138
02:00+23всв228881 0.0 1011105
05:00+23в229351 0.4 101172
08:00+26св2277100 0.9 1013571
11:00+28ссз436881 0.4 1012951
14:00+27ссз557066 1.9 1010878
17:00+26с4575100 0.5 1010525
20:00+24св3482100 0.6 1012183